Columbia Owens, SC

10:54 PM EDT on March 23, 2017 (GMT -0400)
Columbia Owens Downtown

Weather History for KCUB - August, 2014

Change the Weather History Date:

Saturday, August 23, 2014

  Actual Average Record
Temperature  
Mean Temperature 88 °F 80 °F  
Max Temperature 99 °F 90 °F 100 °F (2002)
Min Temperature 76 °F 71 °F 68 °F (2001)
Degree Days  
Heating Degree Days 0 0  
Month to date heating degree days 0 0  
Since 1 June heating degree days 0 0  
Since 1 July heating degree days 0 0  
Cooling Degree Days 23 16  
Month to date cooling degree days 387 383  
Year to date cooling degree days 1798 1699  
Since 1 June cooling degree days 1405 1363  
Growing Degree Days 36 (Base 50)    
Moisture  
Dew Point 71 °F    
Average Humidity 62    
Maximum Humidity 87    
Minimum Humidity 35    
Precipitation  
Precipitation 0.00 in 0.14 in 0.45 in (2006)
Month to date precipitation 4.47 3.80  
Year to date precipitation 28.91 30.71  
Sea Level Pressure  
Sea Level Pressure 29.91 in    
Wind  
Wind Speed 2 mph (NE)    
Max Wind Speed 8 mph    
Max Gust Speed 14 mph    
Visibility 10 miles    
Events      
T = Trace of Precipitation, MM = Missing Value Source: NWS Daily Summary

Daily Weather History Graph

Daily Weather History Graph

Search for Another Location

Airport or City:

Trip Planner

Search our weather history database for the weather conditions in past years. The results will help you decide how hot, cold, wet, or windy it might be!

Date:

Astronomy

Aug. 23, 2014 Rise Set
Actual Time 6:51 AM EDT 8:01 PM EDT
Civil Twilight 6:25 AM EDT 8:27 PM EDT
Nautical Twilight 5:54 AM EDT 8:58 PM EDT
Astronomical Twilight 5:22 AM EDT 9:29 PM EDT
Moon 5:08 AM EDT (8/23) 6:44 PM EDT (8/23)
Length of Visible Light 14h 01m
Length of Day
13h 09m
Waning Crescent, 3% of the Moon is Illuminated
Aug 23
Waning Crescent
Aug 25
New
Sep 2
First Quarter
Sep 8
Full
Sep 15
Last Quarter

Hourly Weather History & Observations

Time (EDT) Temp. Heat Index Dew Point Humidity Pressure Visibility Wind Dir Wind Speed Gust Speed Precip Events Conditions
12:53 AM 81.0 °F 85.2 °F 72.0 °F 74% 29.95 in 10.0 mi ENE 3.5 mph - N/A   Clear
1:53 AM 80.1 °F 83.8 °F 72.0 °F 76% 29.94 in 10.0 mi Calm Calm - N/A   Clear
2:53 AM 79.0 °F - 73.0 °F 82% 29.92 in 10.0 mi Calm Calm - N/A   Clear
3:53 AM 78.1 °F - 73.0 °F 84% 29.91 in 10.0 mi Calm Calm - N/A   Clear
5:53 AM 77.0 °F - 72.0 °F 84% 29.91 in 10.0 mi Calm Calm - N/A   Clear
6:53 AM 75.9 °F - 72.0 °F 87% 29.92 in 10.0 mi Calm Calm - N/A   Clear
7:53 AM 79.0 °F - 73.0 °F 82% 29.94 in 10.0 mi Calm Calm - N/A   Clear
8:53 AM 84.0 °F 89.6 °F 72.0 °F 67% 29.95 in 10.0 mi North 3.5 mph - N/A   Clear
9:53 AM 87.1 °F 93.6 °F 72.0 °F 61% 29.95 in 10.0 mi Variable 3.5 mph - N/A   Clear
10:53 AM 90.0 °F 96.9 °F 72.0 °F 55% 29.95 in 10.0 mi Variable 3.5 mph - N/A   Clear
11:53 AM 93.0 °F 100.7 °F 72.0 °F 50% 29.94 in 10.0 mi Variable 4.6 mph - N/A   Clear
12:53 PM 96.1 °F 102.9 °F 70.0 °F 43% 29.93 in 10.0 mi Variable 4.6 mph - N/A   Partly Cloudy
1:53 PM 93.9 °F 99.1 °F 69.1 °F 44% 29.91 in 10.0 mi Variable 3.5 mph - N/A   Mostly Cloudy
2:53 PM 97.0 °F 101.0 °F 66.9 °F 37% 29.90 in 10.0 mi Variable 4.6 mph - N/A   Partly Cloudy
3:53 PM 98.1 °F 101.8 °F 66.0 °F 35% 29.88 in 10.0 mi Variable 3.5 mph - N/A   Partly Cloudy
5:53 PM 97.0 °F 102.2 °F 68.0 °F 39% 29.86 in 10.0 mi North - - N/A   Partly Cloudy
6:53 PM 93.0 °F 97.9 °F 69.1 °F 45% 29.86 in 10.0 mi Variable 3.5 mph - N/A   Clear
7:53 PM 90.0 °F 95.4 °F 70.0 °F 52% 29.86 in 10.0 mi Calm Calm - N/A   Clear
8:53 PM 86.0 °F 91.5 °F 71.1 °F 61% 29.87 in 10.0 mi Calm Calm - N/A   Clear
9:53 PM 84.0 °F 89.6 °F 72.0 °F 67% 29.88 in 10.0 mi Calm Calm - N/A   Clear
11:53 PM 82.0 °F 86.7 °F 72.0 °F 71% 29.92 in 10.0 mi Variable 4.6 mph - N/A   Clear